Home > Weather > Monticello > Past weeks

Flag for U.S.A. Weather for the Past 2 Weeks in Monticello, Kentucky, U.S.A.

Now
49 °F

Sunny.


Feels Like: 45 °F
Forecast: 25 / 51 °F
Wind: 9 mph from Southwest

Location: London-Corbin Airport-Magee Field

Current Time: Feb 7, 2016 at 1:18:39 PM

Latest Report: Feb 7, 2016 at 12:53 PM


Visibility: 10 mi

Pressure: 30.10 "Hg

Humidity: 33%

Dew point: 21 °F

Location of MonticelloLocation

Historic Weather in Monticello — Graph

°F

Monticello Temperature Yesterday

Maximum temperature yesterday: 47 °F (at 12:53 PM)
Minimum temperature yesterday: 24 °F (at 6:53 AM)
Average temperature yesterday: 35 °F

High & Low Weather Summary for the Past Weeks

 TemperatureHumidityPressure
High71 °F (Feb 2, 1:53 PM)97% (Feb 2, 6:53 AM)30.48 "Hg (Feb 2, 6:53 AM)
Low1 °F (Jan 24, 7:53 AM)30% (Jan 30, 4:53 PM)29.66 "Hg (Feb 3, 3:53 AM)
Average38 °F69%30.08 "Hg
* Reported Jan 23 11:53 AM — Feb 7 11:53 AM, Monticello, Weather by CustomWeather, © 2016

Note: Actual official high and low records may vary slightly from our data, if they occured in-between our weather recording intervals... More about our weather records

Advertising

Monticello Weather History for the Previous 24 Hours

 ConditionsComfort  
Time TempWeatherWind HumidityBarometerVisibility
11:53 AM
Sun, Feb 7
46 °FSunny.6 mph38%30.16 "Hg10 mi
10:53 AM41 °FSunny.5 mph53%30.19 "Hg10 mi
9:53 AM34 °FSunny.3 mph70%30.20 "Hg10 mi
8:53 AM28 °FSunny.No wind85%30.21 "Hg10 mi
7:53 AM24 °FSunny.No wind81%30.22 "Hg10 mi
6:53 AM24 °FClear.No wind84%30.21 "Hg10 mi
5:53 AM24 °FClear.No wind84%30.20 "Hg10 mi
4:53 AM25 °FClear.No wind85%30.18 "Hg10 mi
3:53 AM25 °FClear.No wind85%30.20 "Hg10 mi
2:53 AM26 °FClear.No wind81%30.22 "Hg6 mi
1:53 AM27 °FClear.No wind78%30.24 "Hg10 mi
12:53 AM29 °FClear.No wind79%30.25 "Hg10 mi
11:53 PM
Sat, Feb 6
29 °FClear.No wind75%30.27 "Hg10 mi
10:53 PM31 °FClear.No wind76%30.28 "Hg10 mi
9:53 PM33 °FClear.No wind66%30.29 "Hg10 mi
8:53 PM36 °FClear.No wind59%30.29 "Hg10 mi
7:53 PM38 °FClear.No wind53%30.30 "Hg10 mi
6:53 PM43 °FClear.3 mph38%30.29 "Hg10 mi
5:53 PM44 °FSunny.6 mph38%30.29 "Hg10 mi
4:53 PM46 °FSunny.6 mph35%30.29 "Hg10 mi
3:53 PM47 °FPassing clouds.9 mph32%30.29 "Hg10 mi
2:53 PM47 °FSunny.6 mph32%30.29 "Hg10 mi
1:53 PM47 °FSunny.6 mph32%30.31 "Hg10 mi
Weather by CustomWeather, © 2016

See weather overviewHow to use our weather pages